CW0641 Weather Reports


Display with metric or nautical units.
time (UTC)temp
F
wind
direction
speed
MPH
gust
MPH
rain 1hr
in
rain 24hr
in
rain mn
in
humidity
%
barometer
mb
20260831033723 69 292 4.0 10.0 0.00 0.00 0.00 93 1011.0
20260831033052 69 321 5.0 10.0 0.00 0.00 0.00 93 1011.0
20260831032727 69 278 5.0 10.0 0.00 0.00 0.00 93 1011.0
20260831032050 69 271 4.0 10.0 0.00 0.00 0.00 93 1011.1
20260831031722 69 304 3.0 8.0 0.00 0.00 0.00 93 1011.1
20260831030719 69 249 2.0 7.0 0.00 0.00 0.00 93 1011.4
20260831030038 69 288 3.0 8.0 0.00 0.00 0.00 93 1011.3
20260831025716 69 291 3.0 8.0 0.00 0.00 0.00 93 1011.3
20260831025040 69 327 3.0 8.0 0.00 0.00 0.00 93 1011.1
20260831024717 69 286 2.0 8.0 0.00 0.00 0.00 93 1011.1
20260831024035 69 288 2.0 7.0 0.00 0.00 0.00 93 1011.1
20260831023720 69 257 2.0 6.0 0.00 0.00 0.00 93 1011.1
20260831023038 69 281 3.0 8.0 0.00 0.00 0.00 92 1011.0
20260831022713 69 244 2.0 8.0 0.00 0.00 0.00 93 1011.0
20260831022034 69 284 2.0 6.0 0.00 0.00 0.00 93 1011.1
20260831021716 69 277 2.0 6.0 0.00 0.00 0.00 93 1011.0
20260831021035 69 347 2.0 6.0 0.00 0.00 0.00 93 1011.1
20260831020709 69 295 2.0 8.0 0.00 0.00 0.00 93 1011.1
20260831020038 70 309 2.0 8.0 0.00 0.00 0.00 92 1011.1
20260831015708 70 266 2.0 6.0 0.00 0.00 0.00 92 1011.1
20260831014703 70 325 2.0 7.0 0.00 0.00 0.00 92 1011.0
20260831013706 69 319 2.0 7.0 0.00 0.00 0.00 93 1010.9
20260831012703 69 306 2.0 7.0 0.00 0.00 0.00 92 1010.9
20260831012024 69 258 2.0 6.0 0.00 0.00 0.00 92 1010.9
20260831011700 69 265 2.0 7.0 0.00 0.00 0.00 92 1010.9
20260831011024 69 312 3.0 9.0 0.00 0.00 0.00 92 1010.9
20260831010654 69 281 3.0 9.0 0.00 0.00 0.00 92 1010.8
20260831010022 70 286 3.0 7.0 0.00 0.00 0.00 92 1010.9
20260831005012 70 319 3.0 7.0 0.00 0.00 0.00 92 1010.8
20260831004010 70 277 3.0 8.0 0.00 0.00 0.00 92 1010.8
20260831001648 70 324 2.0 9.0 0.00 0.00 0.00 92 1010.8
20260831000645 70 299 3.0 8.0 0.00 0.00 0.00 92 1010.8
20260830235955 70 321 3.0 9.0 0.00 0.00 0.00 92 1010.9
20260830235642 70 355 3.0 9.0 0.00 0.00 0.00 92 1010.8
20260830234637 70 261 3.0 8.0 0.00 0.00 0.00 92 1010.9
20260830233948 70 328 4.0 9.0 0.00 0.00 0.00 92 1010.8
20260830232945 70 282 3.0 9.0 0.00 0.00 0.00 92 1010.9
20260830232638 70 258 4.0 10.0 0.00 0.00 0.00 92 1011.0
20260830231941 70 317 4.0 10.0 0.00 0.00 0.00 92 1010.9
20260830231635 70 261 4.0 10.0 0.00 0.00 0.00 92 1011.0
20260830230932 70 261 3.0 10.0 0.00 0.00 0.00 92 1011.0
20260830230629 70 267 3.0 9.0 0.00 0.00 0.00 92 1010.9
20260830225931 70 276 4.0 9.0 0.00 0.00 0.00 92 1010.9
20260830225630 70 289 4.0 9.0 0.00 0.00 0.00 92 1010.9
20260830224924 70 308 4.0 9.0 0.00 0.00 0.00 92 1010.9
20260830224629 70 314 5.0 9.0 0.00 0.00 0.00 92 1010.9
20260830223925 70 242 5.0 12.0 0.00 0.00 0.00 92 1010.9
20260830223629 70 302 5.0 12.0 0.00 0.00 0.00 92 1011.0
20260830222923 70 323 5.0 12.0 0.00 0.00 0.00 91 1011.0
20260830222624 70 267 5.0 12.0 0.00 0.00 0.00 91 1011.0
20260830221924 70 278 6.0 12.0 0.00 0.00 0.00 91 1011.0
20260830221623 70 291 6.0 11.0 0.00 0.00 0.00 91 1010.9
20260830220920 70 297 5.0 11.0 0.00 0.00 0.00 91 1010.9
20260830220623 70 282 5.0 11.0 0.00 0.00 0.00 91 1011.0
20260830215617 70 350 5.0 10.0 0.00 0.00 0.00 91 1010.9
20260830214915 70 331 4.0 10.0 0.00 0.00 0.00 91 1011.0
20260830214617 70 305 4.0 11.0 0.00 0.00 0.00 91 1011.0
20260830213917 70 341 5.0 11.0 0.00 0.00 0.00 91 1010.9
20260830213634 70 297 5.0 11.0 0.00 0.00 0.00 91 1011.1
20260830212911 70 294 4.0 11.0 0.00 0.00 0.00 91 1011.1
20260830212615 70 275 3.0 9.0 0.00 0.00 0.00 91 1011.3
20260830211908 70 282 3.0 10.0 0.00 0.00 0.00 91 1011.3
20260830211612 70 306 4.0 10.0 0.00 0.00 0.00 90 1011.3
20260830210904 70 291 4.0 10.0 0.00 0.00 0.00 90 1011.4
20260830210609 70 277 5.0 10.0 0.00 0.00 0.00 90 1011.3
20260830205611 71 302 4.0 10.0 0.00 0.00 0.00 90 1011.4
20260830204900 71 305 5.0 11.0 0.00 0.00 0.00 90 1011.3
20260830204606 71 310 6.0 11.0 0.00 0.00 0.00 90 1011.1
20260830203854 71 277 6.0 11.0 0.00 0.00 0.00 90 1011.1
20260830203608 71 300 6.0 12.0 0.00 0.00 0.00 90 1011.3
20260830202846 71 275 5.0 12.0 0.00 0.00 0.00 90 1011.1
20260830201845 71 288 4.0 11.0 0.00 0.00 0.00 90 1011.1
20260830201605 71 291 6.0 13.0 0.00 0.00 0.00 90 1011.1
20260830200843 71 271 7.0 13.0 0.00 0.00 0.00 90 1011.0
20260830200614 71 323 7.0 13.0 0.00 0.00 0.00 89 1011.1
20260830195840 71 296 8.0 15.0 0.00 0.00 0.00 89 1011.0
20260830194837 71 258 6.0 12.0 0.00 0.00 0.00 89 1010.9
20260830194557 71 289 6.0 12.0 0.00 0.00 0.00 89 1010.9
20260830193827 71 323 6.0 4.0 0.00 0.00 0.00 89 1010.7
20260830193607 71 323 6.0 6.0 0.00 0.00 0.00 89 1010.7
20260830192825 71 323 6.0 13.0 0.00 0.00 0.00 88 1010.7
20260830192606 71 312 7.0 15.0 0.00 0.00 0.00 88 1010.7
20260830191820 71 300 6.0 15.0 0.00 0.00 0.00 88 1010.8
20260830190816 71 274 6.0 13.0 0.00 0.00 0.00 87 1010.8
20260830190605 71 292 6.0 13.0 0.00 0.00 0.00 87 1010.9
20260830185602 72 302 5.0 12.0 0.00 0.00 0.00 87 1010.9
20260830184814 72 302 5.0 12.0 0.00 0.00 0.00 86 1011.0
20260830184550 72 288 6.0 16.0 0.00 0.00 0.00 86 1010.9
20260830183806 72 303 7.0 18.0 0.00 0.00 0.00 86 1010.8
20260830183549 72 296 7.0 18.0 0.00 0.00 0.00 85 1010.8
20260830182805 72 272 8.0 16.0 0.00 0.00 0.00 85 1010.7
20260830182540 72 309 8.0 15.0 0.00 0.00 0.00 85 1010.7
20260830181804 72 0 8.0 15.0 0.00 0.00 0.00 84 1010.8
20260830181551 72 269 8.0 14.0 0.00 0.00 0.00 84 1010.7
20260830180801 72 304 7.0 14.0 0.00 0.00 0.00 83 1010.9
20260830180541 72 301 6.0 14.0 0.00 0.00 0.00 83 1010.8
20260830175541 73 348 6.0 13.0 0.00 0.00 0.00 82 1010.9
20260830174754 73 332 6.0 13.0 0.00 0.00 0.00 82 1011.0
20260830174535 73 326 6.0 13.0 0.00 0.00 0.00 81 1011.0
20260830173534 73 284 4.0 10.0 0.00 0.00 0.00 81 1011.0
20260830172538 73 275 4.0 10.0 0.00 0.00 0.00 80 1010.9
20260830171751 73 345 4.0 10.0 0.00 0.00 0.00 80 1010.9
20260830170751 73 347 3.0 9.0 0.00 0.00 0.00 79 1010.7
20260830170543 74 271 4.0 10.0 0.00 0.00 0.00 79 1010.7
20260830165747 74 292 3.0 10.0 0.00 0.00 0.00 78 1010.7
20260830165534 74 273 3.0 10.0 0.00 0.00 0.00 78 1010.6
20260830164747 74 325 3.0 8.0 0.00 0.00 0.00 78 1010.6
20260830164541 74 286 3.0 9.0 0.00 0.00 0.00 77 1010.6
20260830163740 74 274 4.0 12.0 0.00 0.00 0.00 77 1010.5
20260830163524 74 306 4.0 12.0 0.00 0.00 0.00 76 1010.3
20260830162741 74 317 5.0 11.0 0.00 0.00 0.00 75 1010.2
20260830162521 74 344 4.0 11.0 0.00 0.00 0.00 74 1010.2
20260830161550 75 282 4.0 11.0 0.00 0.00 0.00 72 1010.2
20260830160745 75 296 5.0 13.0 0.00 0.00 0.00 71 1010.1
20260830160550 75 355 5.0 13.0 0.00 0.00 0.00 70 1010.1
20260830155530 75 331 5.0 13.0 0.00 0.00 0.00 67 1010.2
20260830154741 75 313 6.0 12.0 0.00 0.00 0.00 66 1010.1
20260830153741 76 288 5.0 13.0 0.00 0.00 0.00 64 1010.1
20260830153517 76 349 6.0 13.0 0.00 0.00 0.00 63 1010.0
20260830152739 77 305 4.0 13.0 0.00 0.00 0.00 61 1010.0
20260830152515 77 333 3.0 10.0 0.00 0.00 0.00 60 1010.0
20260830151742 77 275 3.0 10.0 0.00 0.00 0.00 59 1010.0
20260830151515 78 300 4.0 10.0 0.00 0.00 0.00 58 1010.0
20260830150736 78 265 4.0 10.0 0.00 0.00 0.00 57 1009.9
20260830150515 78 302 3.0 13.0 0.00 0.00 0.00 56 1010.0
20260830145735 79 300 4.0 13.0 0.00 0.00 0.00 54 1010.1
20260830145526 79 278 4.0 13.0 0.00 0.00 0.00 54 1010.0
20260830144732 79 322 4.0 13.0 0.00 0.00 0.00 53 1010.1
20260830144506 79 348 4.0 12.0 0.00 0.00 0.00 50 1010.1
20260830143728 79 338 3.0 12.0 0.00 0.00 0.00 51 1010.0
20260830143508 79 355 4.0 12.0 0.00 0.00 0.00 52 1009.9
20260830142730 79 311 5.0 11.0 0.00 0.00 0.00 51 1010.0
20260830142507 79 290 4.0 10.0 0.00 0.00 0.00 50 1009.9
20260830141730 79 300 4.0 10.0 0.00 0.00 0.00 51 1010.0
20260830141503 79 323 4.0 13.0 0.00 0.00 0.00 51 1009.9
20260830140728 79 330 5.0 15.0 0.00 0.00 0.00 52 1009.7
20260830140505 79 288 5.0 15.0 0.00 0.00 0.00 54 1009.7
20260830135726 79 286 5.0 11.0 0.00 0.00 0.00 53 1010.0
20260830135504 79 313 4.0 12.0 0.00 0.00 0.00 51 1009.9
20260830134527 80 350 4.0 14.0 0.00 0.00 0.00 52 1009.7
20260830133739 80 289 4.0 14.0 0.00 0.00 0.00 51 1009.7
20260830132728 80 290 4.0 11.0 0.00 0.00 0.00 53 1009.6
20260830132457 80 306 4.0 11.0 0.00 0.00 0.00 52 1009.7
20260830131724 79 332 4.0 12.0 0.00 0.00 0.00 53 1009.7
20260830131457 79 272 4.0 12.0 0.00 0.00 0.00 55 1009.7
20260830130722 79 315 4.0 12.0 0.00 0.00 0.00 56 1009.7
20260830130508 79 300 4.0 12.0 0.00 0.00 0.00 56 1010.0
20260830124531 80 355 4.0 13.0 0.00 0.00 0.00 54 1009.6
20260830123717 80 285 5.0 13.0 0.00 0.00 0.00 54 1009.5
20260830123448 80 340 5.0 15.0 0.00 0.00 0.00 56 1009.5
20260830122721 80 259 4.0 15.0 0.00 0.00 0.00 54 1009.5
20260830122447 80 292 3.0 11.0 0.00 0.00 0.00 55 1009.5
20260830121718 80 355 4.0 13.0 0.00 0.00 0.00 56 1009.3
20260830121448 80 347 5.0 13.0 0.00 0.00 0.00 55 1009.5
20260830120459 80 265 5.0 12.0 0.00 0.00 0.00 53 1009.6
20260830115708 80 250 4.0 12.0 0.00 0.00 0.00 54 1009.5
20260830115439 80 313 4.0 12.0 0.00 0.00 0.00 55 1009.5
20260830114456 81 342 5.0 12.0 0.00 0.00 0.00 52 1009.5
20260830113702 81 309 4.0 12.0 0.00 0.00 0.00 52 1009.5
20260830113440 81 355 4.0 10.0 0.00 0.00 0.00 53 1009.5
20260830112706 81 330 4.0 10.0 0.00 0.00 0.00 54 1009.6
20260830112438 80 321 4.0 13.0 0.00 0.00 0.00 53 1009.6
20260830111704 80 338 5.0 13.0 0.00 0.00 0.00 55 1009.5
20260830110700 80 314 4.0 13.0 0.00 0.00 0.00 55 1009.7
20260830110436 80 317 4.0 11.0 0.00 0.00 0.00 54 1009.7
20260830105446 80 301 3.0 11.0 0.00 0.00 0.00 54 1009.9
20260830104428 80 292 4.0 11.0 0.00 0.00 0.00 55 1009.7
20260830103701 80 313 4.0 12.0 0.00 0.00 0.00 55 1009.7
20260830102430 80 286 3.0 11.0 0.00 0.00 0.00 53 1009.7
20260830101700 80 275 4.0 11.0 0.00 0.00 0.00 53 1009.7
20260830100653 79 252 4.0 11.0 0.00 0.00 0.00 54 1009.9
20260830100427 79 5 3.0 11.0 0.00 0.00 0.00 53 1009.9
20260830095653 79 312 3.0 11.0 0.00 0.00 0.00 55 1009.7
20260830095440 79 250 4.0 12.0 0.00 0.00 0.00 55 1009.9
20260830094654 79 262 3.0 12.0 0.00 0.00 0.00 57 1009.9
20260830093653 78 5 6.0 14.0 0.00 0.00 0.00 57 1009.9
20260830093421 79 293 5.0 14.0 0.00 0.00 0.00 58 1010.0
20260830092653 79 320 3.0 8.0 0.00 0.00 0.00 58 1009.7
20260830092419 79 264 4.0 11.0 0.00 0.00 0.00 60 1009.7
20260830091510 78 265 4.0 11.0 0.00 0.00 0.00 60 1009.7
20260830090653 77 304 4.0 11.0 0.00 0.00 0.00 60 1009.9
20260830090417 77 279 3.0 11.0 0.00 0.00 0.00 62 1010.0
20260830085418 78 293 4.0 11.0 0.00 0.00 0.00 62 1009.7
20260830084651 77 355 5.0 10.0 0.00 0.00 0.00 63 1009.7
20260830084414 77 350 5.0 14.0 0.00 0.00 0.00 65 1009.9
20260830083413 77 282 4.0 10.0 0.00 0.00 0.00 61 1010.0
20260830082651 77 14 3.0 11.0 0.00 0.00 0.00 63 1010.0
20260830082437 77 306 4.0 11.0 0.00 0.00 0.00 64 1010.0
20260830081650 76 244 5.0 11.0 0.00 0.00 0.00 66 1010.0
20260830080647 76 327 2.0 8.0 0.00 0.00 0.00 64 1010.0
20260830075646 76 311 3.0 9.0 0.00 0.00 0.00 65 1010.0
20260830075409 76 292 3.0 9.0 0.00 0.00 0.00 66 1010.0
20260830074647 75 286 3.0 9.0 0.00 0.00 0.00 68 1010.0
20260830074417 75 285 3.0 9.0 0.00 0.00 0.00 68 1010.0
20260830073642 75 327 2.0 9.0 0.00 0.00 0.00 69 1009.9
20260830071642 73 305 3.0 9.0 0.00 0.00 0.00 74 1010.0
20260830071401 73 252 3.0 9.0 0.00 0.00 0.00 75 1010.0
20260830070640 73 306 4.0 10.0 0.00 0.00 0.00 76 1010.0
20260830070357 72 293 4.0 12.0 0.00 0.00 0.00 75 1010.1
20260830065640 72 313 4.0 12.0 0.00 0.00 0.00 75 1010.0
20260830065355 72 288 4.0 12.0 0.00 0.00 0.00 75 1010.0
20260830064632 72 276 4.0 11.0 0.00 0.00 0.00 77 1010.0
20260830063632 72 304 4.0 11.0 0.00 0.00 0.00 80 1009.6
20260830063350 71 5 4.0 11.0 0.00 0.00 0.00 81 1009.6
20260830062634 71 5 4.0 10.0 0.00 0.00 0.00 83 1009.6
20260830061633 71 246 4.0 14.0 0.00 0.00 0.00 83 1009.6
20260830060350 70 284 4.0 12.0 0.00 0.00 0.00 84 1009.6
20260830054628 70 267 4.0 10.0 0.00 0.00 0.00 86 1009.4
20260830053630 70 309 4.0 11.0 0.00 0.00 0.00 87 1009.3
20260830053343 70 251 4.0 12.0 0.00 0.00 0.00 87 1009.3
20260830052629 70 302 5.0 14.0 0.00 0.00 0.00 87 1009.2
20260830051624 69 280 3.0 11.0 0.00 0.00 0.00 88 1009.1
20260830051341 69 0 3.0 11.0 0.00 0.00 0.00 88 1009.2
20260830050624 69 300 4.0 10.0 0.00 0.00 0.00 88 1009.3
20260830050338 69 288 4.0 13.0 0.00 0.00 0.00 89 1009.3
20260830044625 69 299 5.0 13.0 0.00 0.00 0.00 90 1009.1
20260830043621 69 286 4.0 14.0 0.00 0.00 0.00 90 1009.1
20260830043331 69 314 4.0 14.0 0.00 0.00 0.00 90 1009.0
20260830042619 69 245 4.0 11.0 0.00 0.00 0.00 90 1008.9
20260830042329 69 252 4.0 11.0 0.00 0.00 0.00 90 1008.9
20260830041619 69 277 5.0 11.0 0.00 0.00 0.00 90 1008.9
20260830041332 69 287 4.0 9.0 0.00 0.00 0.00 90 1008.9
20260830035616 69 269 4.0 10.0 0.00 0.00 0.00 90 1008.7
20260830035326 69 296 4.0 12.0 0.00 0.00 0.00 90 1008.8
20260830034328 69 271 4.0 10.0 0.00 0.00 0.00 90 1008.7